ARG1009 SACO-YMML

Flight info

Callsign ARG1009
Flight time N/A
Altitude 30000
Route SIMES1G SIMES UT700 TRE/N0492F320 UT700 ORIKA UT109 GAL UP664 NAS/N0484F330 DCT 57S075W 62S082W 66S090W/N0482F340 70S102W 72S118W 73S138W 72S157W 70S173W/N0476F360 66S174E 62S165E 57S159E 53S154E 47S150E/N0466F380 DCT TASUM H111 LT H215 ONAGI
Aircraft B77W/H-SDE1E2E3FGHIJ2J3J4J5M1RWXY/LB1D1

Departure

Time N/A
Airport Ingeniero Aeronáutico Ambrosio L.V. Taravella International Airport (SACO)

Arrival

Time 2026-05-07 23:39
Airport Melbourne Airport (YMML)
Time Latitude Longitude Altitude Speed Heading
2026-05-07 20:17 -64.60113 -85.93508 29423 ft 538 kts 227°
2026-05-07 20:18 -64.70809 -86.15162 29994 ft 546 kts 227°
2026-05-07 20:18 -64.73672 -86.20983 30483 ft 542 kts 227°
2026-05-07 20:18 -64.76505 -86.26754 31030 ft 537 kts 227°
2026-05-07 20:18 -64.79317 -86.32500 31394 ft 537 kts 228°
2026-05-07 20:19 -64.82307 -86.38642 31322 ft 538 kts 228°
2026-05-07 20:19 -64.97644 -86.70440 31258 ft 529 kts 228°
2026-05-07 20:19 -65.07113 -86.90343 31398 ft 535 kts 228°
2026-05-07 20:20 -65.09902 -86.96245 31430 ft 539 kts 228°
2026-05-07 20:20 -65.12705 -87.02190 31691 ft 540 kts 228°
2026-05-07 20:20 -65.15505 -87.08136 32109 ft 537 kts 228°
2026-05-07 20:20 -65.18330 -87.14151 32287 ft 539 kts 228°
2026-05-07 20:21 -65.21122 -87.20121 32269 ft 539 kts 228°
2026-05-07 20:21 -65.23914 -87.26107 32519 ft 539 kts 228°
2026-05-07 20:21 -65.25755 -87.30063 32797 ft 537 kts 228°
2026-05-07 20:21 -65.28521 -87.36019 33220 ft 533 kts 228°
2026-05-07 20:22 -65.31451 -87.42355 33235 ft 537 kts 228°
2026-05-07 20:22 -65.35532 -87.51214 33362 ft 534 kts 228°
2026-05-07 20:22 -65.38165 -87.56947 33308 ft 532 kts 228°
2026-05-07 20:22 -65.43819 -87.69313 33169 ft 528 kts 229°
2026-05-07 20:23 -65.54543 -87.92984 33175 ft 523 kts 229°
2026-05-07 20:23 -65.72696 -88.33721 33284 ft 538 kts 229°
2026-05-07 20:24 -65.83797 -88.58989 33080 ft 528 kts 229°
2026-05-07 20:24 -66.01458 -88.99924 33055 ft 532 kts 229°
2026-05-07 20:24 -66.10084 -89.20215 33112 ft 543 kts 229°
2026-05-07 20:25 -66.21024 -89.46197 32976 ft 539 kts 229°
2026-05-07 20:25 -66.31637 -89.71733 32892 ft 528 kts 229°
2026-05-07 20:25 -66.42156 -89.97395 32951 ft 531 kts 230°
2026-05-07 20:26 -66.54201 -90.27165 32930 ft 541 kts 230°
2026-05-07 20:26 -66.71209 -90.69898 32869 ft 535 kts 230°
2026-05-07 20:27 -66.91922 -91.23192 32823 ft 532 kts 230°
2026-05-07 20:27 -66.95835 -91.33440 32988 ft 526 kts 230°
2026-05-07 20:27 -66.98300 -91.40357 32836 ft 523 kts 235°
2026-05-07 20:27 -67.02803 -91.52908 32814 ft 534 kts 229°
2026-05-07 20:28 -67.07077 -91.63702 32863 ft 541 kts 228°
2026-05-07 20:28 -67.16890 -91.89175 32821 ft 542 kts 230°
2026-05-07 20:28 -67.20635 -91.99266 32716 ft 535 kts 230°
2026-05-07 20:29 -67.26283 -92.14647 32710 ft 531 kts 230°
2026-05-07 20:29 -67.46627 -92.70815 32647 ft 542 kts 230°
2026-05-07 20:30 -67.67002 -93.28529 32524 ft 537 kts 230°
2026-05-07 20:30 -67.76025 -93.54614 32447 ft 532 kts 231°
2026-05-07 20:31 -67.85758 -93.83118 32609 ft 534 kts 230°
2026-05-07 20:31 -67.93208 -94.05193 32638 ft 538 kts 231°
2026-05-07 20:32 -67.99773 -94.24835 32486 ft 541 kts 231°
2026-05-07 20:32 -68.18128 -94.80727 32555 ft 535 kts 231°
2026-05-07 20:33 -68.31890 -95.23623 32556 ft 532 kts 231°
2026-05-07 20:33 -68.41578 -95.54345 32392 ft 534 kts 232°
2026-05-07 20:34 -68.60594 -96.15954 32381 ft 530 kts 232°
2026-05-07 20:34 -68.79305 -96.78353 32407 ft 525 kts 232°
2026-05-07 20:35 -68.87880 -97.07567 32453 ft 525 kts 232°
2026-05-07 20:35 -68.94477 -97.30316 32371 ft 525 kts 233°
2026-05-07 20:36 -69.12469 -97.93601 32274 ft 523 kts 233°
2026-05-07 20:36 -69.24571 -98.37243 32442 ft 519 kts 233°
2026-05-07 20:37 -69.37420 -98.84563 32354 ft 519 kts 234°
2026-05-07 20:37 -69.54828 -99.50378 32370 ft 520 kts 234°
2026-05-07 20:38 -69.72050 -100.17520 32336 ft 519 kts 235°
2026-05-07 20:38 -69.88878 -100.85393 32385 ft 519 kts 236°
2026-05-07 20:39 -69.96520 -101.16808 32427 ft 519 kts 236°
2026-05-07 20:39 -70.07395 -101.62205 32489 ft 519 kts 237°
2026-05-07 20:40 -70.12992 -101.86070 32401 ft 522 kts 237°
2026-05-07 20:40 -70.28833 -102.54996 32493 ft 521 kts 238°
2026-05-07 20:41 -70.36410 -102.88761 32441 ft 523 kts 238°
2026-05-07 20:41 -70.42673 -103.17076 32428 ft 524 kts 239°
2026-05-07 20:42 -70.57678 -103.86476 32482 ft 521 kts 240°
2026-05-07 20:42 -70.68631 -104.38620 32500 ft 515 kts 241°
2026-05-07 20:42 -70.71524 -104.52982 32494 ft 497 kts 241°
2026-05-07 20:43 -70.73693 -104.63581 32439 ft 499 kts 241°
2026-05-07 20:43 -70.79811 -104.93129 32448 ft 508 kts 241°
2026-05-07 20:44 -70.93687 -105.62864 32381 ft 508 kts 243°
2026-05-07 20:44 -71.00802 -105.99496 32404 ft 493 kts 243°
2026-05-07 20:44 -71.05012 -106.21427 32372 ft 488 kts 243°
2026-05-07 20:45 -71.10535 -106.50646 32310 ft 502 kts 244°
2026-05-07 20:45 -71.19561 -106.99359 32379 ft 503 kts 244°
2026-05-07 20:46 -71.33080 -107.74361 32418 ft 491 kts 245°
2026-05-07 20:46 -71.46195 -108.49857 32393 ft 505 kts 246°
2026-05-07 20:47 -71.50656 -108.78185 32473 ft 495 kts 251°
2026-05-07 20:47 -71.54895 -109.02352 32501 ft 510 kts 244°
2026-05-07 20:48 -71.62194 -109.45538 32422 ft 518 kts 247°
2026-05-07 20:48 -71.75062 -110.26252 32348 ft 505 kts 249°
2026-05-07 20:49 -71.81810 -110.69910 32430 ft 514 kts 249°
2026-05-07 20:49 -71.93349 -111.46847 32392 ft 515 kts 250°
2026-05-07 20:49 -71.99388 -111.88245 32440 ft 504 kts 252°
2026-05-07 20:50 -72.05249 -112.29352 32481 ft 502 kts 253°
2026-05-07 20:50 -72.16880 -113.13586 32415 ft 518 kts 253°
2026-05-07 20:51 -72.20730 -113.43067 32465 ft 508 kts 255°
2026-05-07 20:51 -72.23616 -113.65060 32484 ft 512 kts 252°
2026-05-07 20:52 -72.27612 -113.93823 32561 ft 514 kts 255°
2026-05-07 20:52 -72.37631 -114.73680 32515 ft 511 kts 256°
2026-05-07 20:53 -72.48116 -115.60142 32557 ft 506 kts 258°
2026-05-07 20:53 -72.58352 -116.48788 32614 ft 515 kts 259°
2026-05-07 20:54 -72.62222 -116.83382 32632 ft 505 kts 259°
2026-05-07 20:54 -72.69335 -117.49077 32615 ft 495 kts 261°
2026-05-07 20:55 -72.75255 -118.05814 32695 ft 507 kts 261°
2026-05-07 20:55 -72.77964 -118.32755 32621 ft 504 kts 262°
2026-05-07 20:56 -72.81702 -118.70344 32567 ft 503 kts 259°
2026-05-07 20:56 -72.85108 -119.04044 32603 ft 501 kts 261°
2026-05-07 20:57 -72.93381 -119.92267 32639 ft 501 kts 261°
2026-05-07 20:57 -72.95836 -120.21335 32612 ft 498 kts 258°
2026-05-07 20:58 -73.00159 -120.66619 32603 ft 497 kts 261°
2026-05-07 20:58 -73.07803 -121.58393 32593 ft 503 kts 261°
2026-05-07 20:59 -73.15088 -122.49824 32644 ft 486 kts 261°
2026-05-07 20:59 -73.21883 -123.41180 32688 ft 498 kts 261°
2026-05-07 21:00 -73.24070 -123.72445 32671 ft 493 kts 263°
2026-05-07 21:00 -73.29253 -124.47594 32605 ft 482 kts 262°
2026-05-07 21:01 -73.34286 -125.26161 32671 ft 496 kts 262°
2026-05-07 21:01 -73.38687 -125.99209 32617 ft 486 kts 262°
2026-05-07 21:01 -73.41314 -126.45002 32722 ft 478 kts 263°
2026-05-07 21:02 -73.42331 -126.63416 32697 ft 484 kts 263°
2026-05-07 21:02 -73.44173 -126.97536 32643 ft 492 kts 263°
2026-05-07 21:02 -73.45999 -127.32339 32753 ft 491 kts 263°
2026-05-07 21:03 -73.46650 -127.45072 32716 ft 491 kts 263°
2026-05-07 21:03 -73.51091 -128.36503 32649 ft 488 kts 264°
2026-05-07 21:04 -73.55221 -129.30553 32660 ft 484 kts 264°
2026-05-07 21:04 -73.58909 -130.24446 32643 ft 481 kts 265°
2026-05-07 21:05 -73.62166 -131.18396 32660 ft 479 kts 265°
2026-05-07 21:05 -73.64976 -132.11607 32649 ft 478 kts 266°
2026-05-07 21:06 -73.67401 -133.06244 32657 ft 478 kts 267°
2026-05-07 21:06 -73.69370 -133.99676 32706 ft 476 kts 268°
2026-05-07 21:07 -73.70465 -134.61136 32628 ft 477 kts 269°
2026-05-07 21:07 -73.71519 -135.33735 32636 ft 477 kts 270°
2026-05-07 21:08 -73.72365 -136.16295 32691 ft 477 kts 270°
2026-05-07 21:08 -73.72902 -136.95172 32701 ft 479 kts 270°
2026-05-07 21:09 -73.73161 -137.90203 32699 ft 479 kts 270°
2026-05-07 21:09 -73.73001 -138.84916 32728 ft 477 kts 271°
2026-05-07 21:10 -73.72573 -139.60310 32667 ft 474 kts 271°
2026-05-07 21:10 -73.72015 -140.22499 32757 ft 471 kts 272°
2026-05-07 21:11 -73.70838 -141.15511 32799 ft 468 kts 272°
2026-05-07 21:11 -73.69760 -141.81098 32857 ft 466 kts 272°
2026-05-07 21:12 -73.68692 -142.37760 32768 ft 468 kts 273°
2026-05-07 21:12 -73.67018 -143.12967 32822 ft 465 kts 274°
2026-05-07 21:13 -73.65552 -143.67387 32677 ft 465 kts 273°
2026-05-07 21:13 -73.64693 -144.00883 32752 ft 463 kts 274°
2026-05-07 21:14 -73.63289 -144.48448 32703 ft 466 kts 275°
2026-05-07 21:14 -73.62790 -144.64447 32808 ft 464 kts 275°
2026-05-07 21:14 -73.61550 -145.02720 32827 ft 465 kts 275°
2026-05-07 21:15 -73.58325 -145.93537 32840 ft 465 kts 276°
2026-05-07 21:15 -73.54706 -146.84092 32835 ft 464 kts 277°
2026-05-07 21:16 -73.50725 -147.73725 32846 ft 461 kts 277°
2026-05-07 21:16 -73.46432 -148.61573 32843 ft 458 kts 278°
2026-05-07 21:17 -73.41774 -149.49114 32847 ft 455 kts 279°
2026-05-07 21:17 -73.39824 -149.83425 32972 ft 452 kts 280°
2026-05-07 21:17 -73.37801 -150.18191 32949 ft 453 kts 280°
2026-05-07 21:18 -73.33630 -150.85958 32924 ft 454 kts 281°
2026-05-07 21:18 -73.28109 -151.71934 32923 ft 454 kts 282°
2026-05-07 21:19 -73.22178 -152.57289 32957 ft 454 kts 283°
2026-05-07 21:19 -73.16054 -153.39822 33018 ft 453 kts 284°
2026-05-07 21:20 -73.12578 -153.84688 32979 ft 455 kts 284°
2026-05-07 21:20 -73.10272 -154.13661 32915 ft 457 kts 285°
2026-05-07 21:21 -73.03965 -154.90064 32921 ft 454 kts 285°
2026-05-07 21:21 -72.96815 -155.72173 32935 ft 453 kts 287°
2026-05-07 21:22 -72.89299 -156.54097 32953 ft 451 kts 288°
2026-05-07 21:22 -72.81478 -157.34997 32936 ft 453 kts 289°
2026-05-07 21:23 -72.79174 -157.58089 32829 ft 454 kts 288°
2026-05-07 21:23 -72.78142 -157.68130 32934 ft 452 kts 289°
2026-05-07 21:23 -72.71085 -158.36847 32977 ft 453 kts 290°
2026-05-07 21:24 -72.63990 -159.02908 32916 ft 456 kts 291°
2026-05-07 21:24 -72.57629 -159.59991 32877 ft 457 kts 291°
2026-05-07 21:25 -72.51513 -160.13306 32937 ft 456 kts 292°
2026-05-07 21:25 -72.43712 -160.79059 32978 ft 456 kts 292°
2026-05-07 21:26 -72.34130 -161.56709 32974 ft 456 kts 293°
2026-05-07 21:26 -72.24232 -162.33650 32970 ft 457 kts 294°
2026-05-07 21:27 -72.14048 -163.09646 32969 ft 456 kts 294°
2026-05-07 21:27 -72.03576 -163.84773 32987 ft 456 kts 295°
2026-05-07 21:28 -71.92818 -164.59103 32868 ft 458 kts 296°
2026-05-07 21:28 -71.89080 -164.83560 32964 ft 454 kts 295°
2026-05-07 21:29 -71.78319 -165.55075 32964 ft 458 kts 296°
2026-05-07 21:29 -71.66933 -166.27268 32959 ft 459 kts 297°
2026-05-07 21:30 -71.55176 -166.99238 32943 ft 459 kts 297°
2026-05-07 21:30 -71.43216 -167.69941 32926 ft 456 kts 298°
2026-05-07 21:31 -71.31038 -168.39524 32919 ft 455 kts 298°
2026-05-07 21:31 -71.18658 -169.07953 32909 ft 453 kts 299°
2026-05-07 21:32 -71.06325 -169.73957 32910 ft 452 kts 300°
2026-05-07 21:32 -70.93543 -170.40257 32903 ft 451 kts 300°
2026-05-07 21:33 -70.80532 -171.05673 32891 ft 450 kts 301°
2026-05-07 21:33 -70.67385 -171.69784 32850 ft 450 kts 301°
2026-05-07 21:34 -70.53972 -172.33268 32853 ft 449 kts 301°
2026-05-07 21:34 -70.40376 -172.95748 32840 ft 448 kts 302°
2026-05-07 21:35 -70.26611 -173.57206 32828 ft 446 kts 302°
2026-05-07 21:35 -70.12695 -174.17596 32818 ft 445 kts 302°
2026-05-07 21:36 -69.98616 -174.77021 32810 ft 442 kts 303°
2026-05-07 21:36 -69.84477 -175.35097 32788 ft 442 kts 303°
2026-05-07 21:37 -69.70097 -175.92600 32804 ft 440 kts 304°
2026-05-07 21:37 -69.55557 -176.49224 32768 ft 440 kts 304°
2026-05-07 21:38 -69.40871 -177.04948 32776 ft 438 kts 305°
2026-05-07 21:38 -69.26134 -177.59459 32758 ft 437 kts 305°
2026-05-07 21:39 -69.11183 -178.13385 32754 ft 435 kts 306°
2026-05-07 21:39 -68.96164 -178.66233 32758 ft 434 kts 306°
2026-05-07 21:40 -68.80983 -179.18366 32750 ft 433 kts 307°
2026-05-07 21:40 -68.65697 -179.69616 32770 ft 432 kts 307°
2026-05-07 21:41 -68.50280 179.79911 32761 ft 432 kts 308°
2026-05-07 21:41 -68.34713 179.30122 32778 ft 432 kts 308°
2026-05-07 21:42 -68.19004 178.81025 32783 ft 431 kts 309°
2026-05-07 21:42 -68.03200 178.32748 32788 ft 430 kts 309°
2026-05-07 21:43 -67.87352 177.85407 32799 ft 431 kts 310°
2026-05-07 21:43 -67.71265 177.38411 32780 ft 431 kts 310°
2026-05-07 21:44 -67.55043 176.92050 32793 ft 430 kts 310°
2026-05-07 21:44 -67.38715 176.46392 32791 ft 430 kts 311°
2026-05-07 21:45 -67.22283 176.01419 32815 ft 430 kts 311°
2026-05-07 21:45 -67.05708 175.57008 32814 ft 430 kts 311°
2026-05-07 21:46 -66.89034 175.13263 32835 ft 430 kts 312°
2026-05-07 21:46 -66.81525 174.93857 30430 ft 430 kts 313°
2026-05-07 21:46 -66.79424 174.88481 32910 ft 427 kts 313°
2026-05-07 21:47 -66.72367 174.70462 32945 ft 430 kts 312°
2026-05-07 21:47 -66.66360 174.55206 32904 ft 435 kts 313°
2026-05-07 21:48 -66.52658 174.20898 32940 ft 435 kts 313°
2026-05-07 21:48 -66.44027 173.99571 32804 ft 435 kts 313°
2026-05-07 21:48 -66.37802 173.84327 32864 ft 429 kts 313°
2026-05-07 21:49 -66.20920 173.43536 32879 ft 422 kts 314°
2026-05-07 21:49 -66.03697 173.02730 32916 ft 435 kts 314°
2026-05-07 21:50 -65.86308 172.62356 32829 ft 421 kts 315°
2026-05-07 21:50 -65.69171 172.23312 32915 ft 429 kts 315°
2026-05-07 21:51 -65.51438 171.83695 32893 ft 431 kts 315°
2026-05-07 21:51 -65.39267 171.56941 32875 ft 420 kts 316°
2026-05-07 21:52 -65.21814 171.19176 32948 ft 431 kts 316°
2026-05-07 21:52 -65.03999 170.81354 32918 ft 424 kts 317°
2026-05-07 21:53 -64.86506 170.44884 33041 ft 424 kts 317°
2026-05-07 21:53 -64.80484 170.32481 33596 ft 430 kts 317°
2026-05-07 21:53 -64.78233 170.27867 33923 ft 429 kts 317°
2026-05-07 21:54 -64.75989 170.23278 34246 ft 428 kts 317°
2026-05-07 21:54 -64.73741 170.18690 34565 ft 428 kts 317°
2026-05-07 21:54 -64.71501 170.14127 34825 ft 428 kts 317°
2026-05-07 21:54 -64.67489 170.05981 34837 ft 435 kts 317°
2026-05-07 21:55 -64.62613 169.96130 34911 ft 428 kts 317°
2026-05-07 21:55 -64.49984 169.70834 35033 ft 421 kts 317°
2026-05-07 21:56 -64.32118 169.35582 34970 ft 422 kts 318°
2026-05-07 21:56 -64.14160 169.00773 34949 ft 423 kts 318°
2026-05-07 21:57 -63.96015 168.66213 34940 ft 426 kts 319°
2026-05-07 21:57 -63.77725 168.31984 34945 ft 426 kts 319°
2026-05-07 21:58 -63.59296 167.98085 34942 ft 428 kts 319°
2026-05-07 21:58 -63.40870 167.64773 34951 ft 428 kts 320°
2026-05-07 21:59 -63.22201 167.31592 34932 ft 430 kts 320°
2026-05-07 21:59 -63.03418 166.98773 34921 ft 431 kts 320°
2026-05-07 22:00 -62.84523 166.66313 34908 ft 432 kts 320°
2026-05-07 22:00 -62.65900 166.34848 34891 ft 432 kts 320°
2026-05-07 22:01 -62.46836 166.03162 34894 ft 431 kts 321°
2026-05-07 22:01 -62.27775 165.72000 34906 ft 429 kts 321°
2026-05-07 22:02 -62.08646 165.41232 34918 ft 430 kts 321°
2026-05-07 22:02 -61.92405 165.15497 34914 ft 429 kts 321°
2026-05-07 22:03 -61.74882 164.88116 35000 ft 428 kts 321°
2026-05-07 22:03 -61.66425 164.75042 34893 ft 430 kts 322°
2026-05-07 22:04 -61.51104 164.51591 34928 ft 429 kts 322°
2026-05-07 22:04 -61.31728 164.22343 34939 ft 430 kts 322°
2026-05-07 22:05 -61.12532 163.93815 35031 ft 430 kts 322°
2026-05-07 22:05 -60.98298 163.72938 34981 ft 432 kts 322°
2026-05-07 22:06 -60.78662 163.44521 34984 ft 431 kts 322°
2026-05-07 22:06 -60.59055 163.16575 35001 ft 433 kts 323°
2026-05-07 22:07 -60.39225 162.88736 34993 ft 434 kts 323°
2026-05-07 22:07 -60.19248 162.61112 34976 ft 436 kts 323°
2026-05-07 22:08 -59.99180 162.33776 35012 ft 437 kts 323°
2026-05-07 22:08 -59.78979 162.06668 35004 ft 438 kts 323°
2026-05-07 22:09 -59.58812 161.80002 35021 ft 439 kts 323°
2026-05-07 22:09 -59.38419 161.53435 35001 ft 440 kts 323°
2026-05-07 22:10 -59.17923 161.27118 35030 ft 441 kts 323°
2026-05-07 22:10 -58.97312 161.01038 34946 ft 443 kts 324°
2026-05-07 22:11 -58.76686 160.75317 35044 ft 440 kts 324°
2026-05-07 22:11 -58.56049 160.49945 35063 ft 440 kts 324°
2026-05-07 22:12 -58.35330 160.24833 35013 ft 442 kts 324°
2026-05-07 22:12 -58.14522 159.99965 35089 ft 442 kts 324°
2026-05-07 22:13 -57.93610 159.75322 35085 ft 443 kts 324°
2026-05-07 22:13 -57.72565 159.50865 35093 ft 445 kts 324°
2026-05-07 22:14 -57.51567 159.26798 35124 ft 446 kts 324°
2026-05-07 22:14 -57.30282 159.02735 35142 ft 448 kts 324°
2026-05-07 22:15 -57.08868 158.78852 35147 ft 451 kts 324°
2026-05-07 22:15 -56.87291 158.55102 35124 ft 454 kts 324°
2026-05-07 22:16 -56.68805 158.35046 35190 ft 455 kts 324°
2026-05-07 22:16 -56.46901 158.11555 35156 ft 458 kts 324°
2026-05-07 22:17 -56.30154 157.93807 35289 ft 458 kts 324°
2026-05-07 22:17 -56.14977 157.77881 35201 ft 459 kts 324°
2026-05-07 22:18 -55.81690 157.43456 35228 ft 462 kts 324°
2026-05-07 22:19 -55.59381 157.20768 35267 ft 462 kts 324°
2026-05-07 22:19 -55.42205 157.03442 35167 ft 459 kts 324°
2026-05-07 22:19 -55.39281 157.00591 35275 ft 458 kts 327°
2026-05-07 22:20 -55.35640 156.97170 35258 ft 458 kts 324°
2026-05-07 22:20 -55.18024 156.79478 35284 ft 469 kts 324°
2026-05-07 22:21 -54.95061 156.56999 35306 ft 473 kts 324°
2026-05-07 22:21 -54.72228 156.34928 35309 ft 467 kts 324°
2026-05-07 22:22 -54.56165 156.19570 35260 ft 468 kts 324°
2026-05-07 22:22 -54.44320 156.08330 35197 ft 473 kts 324°
2026-05-07 22:23 -54.37188 156.01604 35363 ft 472 kts 324°
2026-05-07 22:23 -54.15965 155.81735 35365 ft 479 kts 324°
2026-05-07 22:24 -53.97312 155.64469 35289 ft 484 kts 324°
2026-05-07 22:24 -53.81774 155.50224 35350 ft 484 kts 324°
2026-05-07 22:25 -53.58005 155.28658 35380 ft 486 kts 324°
2026-05-07 22:25 -53.34107 155.07254 35385 ft 489 kts 324°
2026-05-07 22:26 -53.10139 154.86061 35484 ft 491 kts 324°
2026-05-07 22:26 -52.96234 154.73889 35447 ft 493 kts 324°
2026-05-07 22:27 -52.71817 154.52727 35462 ft 497 kts 324°
2026-05-07 22:27 -52.47270 154.31725 35489 ft 497 kts 325°
2026-05-07 22:28 -52.22670 154.10943 35531 ft 497 kts 325°
2026-05-07 22:28 -52.08362 153.99051 35475 ft 494 kts 321°
2026-05-07 22:29 -51.94012 153.86960 35503 ft 500 kts 326°
2026-05-07 22:29 -51.81014 153.76755 35513 ft 501 kts 327°
2026-05-07 22:30 -51.74051 153.70616 35539 ft 501 kts 322°
2026-05-07 22:30 -51.63373 153.61661 35649 ft 516 kts 326°
2026-05-07 22:30 -51.60176 153.59101 35535 ft 510 kts 327°
2026-05-07 22:30 -51.52347 153.52961 35495 ft 491 kts 325°
2026-05-07 22:31 -51.49041 153.50303 35558 ft 496 kts 325°
2026-05-07 22:31 -51.37788 153.41167 35641 ft 515 kts 326°
2026-05-07 22:31 -51.33087 153.37385 35638 ft 514 kts 326°
2026-05-07 22:31 -51.27266 153.32740 35569 ft 502 kts 326°
2026-05-07 22:32 -51.18876 153.26013 35614 ft 499 kts 325°
2026-05-07 22:32 -51.02645 153.13270 35583 ft 510 kts 330°
2026-05-07 22:33 -50.87083 153.00934 35684 ft 519 kts 325°
2026-05-07 22:33 -50.77319 152.93208 35585 ft 513 kts 327°
2026-05-07 22:33 -50.67825 152.85841 35525 ft 502 kts 326°
2026-05-07 22:34 -50.61860 152.81279 35607 ft 502 kts 327°
2026-05-07 22:34 -50.51411 152.73150 35635 ft 521 kts 326°
2026-05-07 22:34 -50.43649 152.67113 35670 ft 525 kts 327°
2026-05-07 22:35 -50.30992 152.57479 35559 ft 502 kts 329°
2026-05-07 22:35 -50.16977 152.46877 35672 ft 524 kts 326°
2026-05-07 22:35 -50.04565 152.37338 35584 ft 536 kts 327°
2026-05-07 22:36 -49.99974 152.33774 35635 ft 524 kts 327°
2026-05-07 22:36 -49.87487 152.24516 35579 ft 512 kts 327°
2026-05-07 22:36 -49.78511 152.17827 35665 ft 512 kts 327°
2026-05-07 22:36 -49.66872 152.09141 35693 ft 527 kts 327°
2026-05-07 22:37 -49.53573 151.99312 35582 ft 531 kts 327°
2026-05-07 22:37 -49.44258 151.92476 35633 ft 519 kts 330°
2026-05-07 22:38 -49.37422 151.87499 35660 ft 520 kts 327°
2026-05-07 22:38 -49.14760 151.70940 35686 ft 530 kts 328°
2026-05-07 22:39 -48.88114 151.51761 35645 ft 525 kts 328°
2026-05-07 22:39 -48.61908 151.33100 35712 ft 521 kts 328°
2026-05-07 22:39 -48.48797 151.23839 35717 ft 533 kts 329°
2026-05-07 22:40 -48.35287 151.14367 35638 ft 537 kts 329°
2026-05-07 22:40 -48.15796 151.00801 35606 ft 525 kts 329°
2026-05-07 22:41 -48.05302 150.93526 35740 ft 534 kts 329°
2026-05-07 22:41 -47.90980 150.83667 35704 ft 532 kts 330°
2026-05-07 22:42 -47.74069 150.72111 35724 ft 524 kts 329°
2026-05-07 22:42 -47.52252 150.57302 35803 ft 538 kts 330°
2026-05-07 22:43 -47.23973 150.38335 35660 ft 532 kts 330°
2026-05-07 22:43 -47.15937 150.32984 35774 ft 527 kts 330°
2026-05-07 22:44 -46.89394 150.15425 35780 ft 525 kts 330°
2026-05-07 22:44 -46.71154 150.03468 35805 ft 533 kts 331°
2026-05-07 22:44 -46.67755 150.01248 35924 ft 538 kts 331°
2026-05-07 22:45 -46.64342 149.99024 36254 ft 537 kts 331°
2026-05-07 22:45 -46.60929 149.96807 36668 ft 535 kts 331°
2026-05-07 22:45 -46.57533 149.94605 37030 ft 533 kts 330°
2026-05-07 22:45 -46.54147 149.92411 37391 ft 532 kts 330°
2026-05-07 22:46 -46.50773 149.90226 37728 ft 531 kts 330°
2026-05-07 22:46 -46.43989 149.85836 37779 ft 533 kts 330°
2026-05-07 22:47 -46.37235 149.81483 37778 ft 529 kts 330°
2026-05-07 22:47 -46.30521 149.77168 37795 ft 527 kts 330°
2026-05-07 22:48 -46.23811 149.72862 37811 ft 527 kts 331°
2026-05-07 22:48 -46.10251 149.64197 37826 ft 530 kts 331°
2026-05-07 22:49 -45.83282 149.47110 37794 ft 535 kts 331°
2026-05-07 22:49 -45.55761 149.29860 37806 ft 538 kts 331°
2026-05-07 22:50 -45.28460 149.12929 37823 ft 539 kts 332°
2026-05-07 22:50 -45.00908 148.96022 37835 ft 540 kts 332°
2026-05-07 22:51 -44.73277 148.79244 37852 ft 540 kts 332°
2026-05-07 22:51 -44.45677 148.62658 37926 ft 539 kts 333°
2026-05-07 22:52 -44.25873 148.50864 37896 ft 539 kts 333°
2026-05-07 22:52 -43.99855 148.35497 37909 ft 538 kts 333°
2026-05-07 22:53 -43.72446 148.19468 37941 ft 537 kts 333°
2026-05-07 22:53 -43.44876 148.03506 37985 ft 536 kts 333°
2026-05-07 22:54 -43.26851 147.92990 37946 ft 531 kts 333°
2026-05-07 22:54 -43.15774 147.86875 37863 ft 530 kts 334°
2026-05-07 22:55 -42.92472 147.73590 37946 ft 533 kts 334°
2026-05-07 22:55 -42.64963 147.58113 37991 ft 534 kts 334°
2026-05-07 22:56 -42.37428 147.42761 37962 ft 535 kts 334°
2026-05-07 22:56 -42.23014 147.37608 38025 ft 538 kts 349°
2026-05-07 22:56 -42.08468 147.34196 37977 ft 537 kts 347°
2026-05-07 22:57 -41.90863 147.29965 37980 ft 534 kts 347°
2026-05-07 22:57 -41.83561 147.28230 37984 ft 533 kts 347°
2026-05-07 22:58 -41.76410 147.26533 37981 ft 532 kts 347°
2026-05-07 22:58 -41.69184 147.24821 37952 ft 530 kts 347°
2026-05-07 22:59 -41.61990 147.23121 37774 ft 519 kts 347°
2026-05-07 22:59 -41.58447 147.22285 37541 ft 516 kts 347°
2026-05-07 22:59 -41.54946 147.21298 37193 ft 513 kts 342°
2026-05-07 22:59 -41.51535 147.19918 36769 ft 512 kts 335°
2026-05-07 23:00 -41.48239 147.18138 36372 ft 511 kts 333°
2026-05-07 23:00 -41.44957 147.16305 35956 ft 512 kts 333°
2026-05-07 23:00 -41.41675 147.14478 35649 ft 510 kts 333°
2026-05-07 23:00 -41.38396 147.12667 35294 ft 510 kts 333°
2026-05-07 23:01 -41.35106 147.10866 34916 ft 511 kts 333°
2026-05-07 23:01 -41.31817 147.09079 34529 ft 511 kts 333°
2026-05-07 23:01 -41.28504 147.07286 34139 ft 517 kts 333°
2026-05-07 23:01 -41.25146 147.05472 33993 ft 525 kts 333°
2026-05-07 23:02 -41.21748 147.03640 33995 ft 529 kts 333°
2026-05-07 23:02 -41.14951 146.99987 34000 ft 531 kts 333°
2026-05-07 23:03 -41.08121 146.96327 34002 ft 528 kts 333°
2026-05-07 23:03 -41.01331 146.92692 33984 ft 525 kts 333°
2026-05-07 23:04 -40.94554 146.89068 34006 ft 525 kts 333°
2026-05-07 23:04 -40.87765 146.85445 34023 ft 526 kts 333°
2026-05-07 23:05 -40.80965 146.81824 33993 ft 528 kts 333°
2026-05-07 23:05 -40.74185 146.78223 34020 ft 529 kts 333°
2026-05-07 23:06 -40.67338 146.74596 34026 ft 530 kts 333°
2026-05-07 23:06 -40.60482 146.70971 33990 ft 531 kts 333°
2026-05-07 23:07 -40.53623 146.67354 34026 ft 530 kts 333°
2026-05-07 23:07 -40.46772 146.63748 34038 ft 530 kts 333°
2026-05-07 23:08 -40.39923 146.60151 34018 ft 530 kts 333°
2026-05-07 23:08 -40.33080 146.56564 34049 ft 529 kts 333°
2026-05-07 23:09 -40.26235 146.52985 34058 ft 529 kts 333°
2026-05-07 23:09 -40.19402 146.49419 34053 ft 529 kts 333°
2026-05-07 23:10 -40.12598 146.45876 34074 ft 529 kts 333°
2026-05-07 23:10 -40.05751 146.42317 34067 ft 529 kts 333°
2026-05-07 23:11 -39.98914 146.38773 34083 ft 529 kts 333°
2026-05-07 23:11 -39.92063 146.35245 34092 ft 529 kts 333°
2026-05-07 23:12 -39.85249 146.31749 34082 ft 529 kts 333°
2026-05-07 23:12 -39.78404 146.28239 34061 ft 529 kts 333°
2026-05-07 23:13 -39.71559 146.24736 34086 ft 528 kts 333°
2026-05-07 23:13 -39.64737 146.21255 34083 ft 522 kts 333°
2026-05-07 23:13 -39.61394 146.19557 34086 ft 511 kts 333°
2026-05-07 23:14 -39.58098 146.17883 34094 ft 507 kts 333°
2026-05-07 23:14 -39.51541 146.14541 34091 ft 507 kts 333°
2026-05-07 23:14 -39.48288 146.12890 33855 ft 492 kts 333°
2026-05-07 23:15 -39.45162 146.11310 33130 ft 475 kts 333°
2026-05-07 23:15 -39.42208 146.09814 32263 ft 464 kts 333°
2026-05-07 23:15 -39.39229 146.08304 31650 ft 454 kts 332°
2026-05-07 23:15 -39.36302 146.06825 31277 ft 451 kts 332°
2026-05-07 23:16 -39.33389 146.05353 30859 ft 448 kts 332°
2026-05-07 23:16 -39.30528 146.03909 30437 ft 445 kts 332°
2026-05-07 23:16 -39.27651 146.02458 30017 ft 442 kts 332°
2026-05-07 23:16 -39.24751 146.00997 29562 ft 439 kts 332°
2026-05-07 23:17 -39.21956 145.99590 29158 ft 435 kts 332°
2026-05-07 23:17 -39.19110 145.98159 28741 ft 431 kts 332°
2026-05-07 23:17 -39.16361 145.96778 28337 ft 428 kts 332°
2026-05-07 23:17 -39.13598 145.95390 27915 ft 425 kts 332°
2026-05-07 23:18 -39.10845 145.94008 27518 ft 422 kts 332°
2026-05-07 23:18 -39.08120 145.92642 27112 ft 419 kts 332°
2026-05-07 23:18 -39.05413 145.91285 26708 ft 416 kts 332°
2026-05-07 23:18 -39.02721 145.89937 26322 ft 413 kts 332°
2026-05-07 23:19 -39.00056 145.88604 25941 ft 411 kts 332°
2026-05-07 23:19 -38.97400 145.87276 25550 ft 409 kts 332°
2026-05-07 23:19 -38.94756 145.85956 25158 ft 406 kts 333°
2026-05-07 23:19 -38.92124 145.84642 24768 ft 405 kts 333°
2026-05-07 23:20 -38.89508 145.83337 24387 ft 403 kts 333°
2026-05-07 23:20 -38.86897 145.82036 24000 ft 402 kts 333°
2026-05-07 23:20 -38.84292 145.80739 23572 ft 401 kts 333°
2026-05-07 23:20 -38.82569 145.79882 23276 ft 400 kts 333°
2026-05-07 23:21 -38.79116 145.78166 22686 ft 397 kts 333°
2026-05-07 23:21 -38.76552 145.76894 22318 ft 393 kts 333°
2026-05-07 23:21 -38.74011 145.75634 21928 ft 390 kts 333°
2026-05-07 23:21 -38.71516 145.74396 21540 ft 388 kts 333°
2026-05-07 23:22 -38.69005 145.73152 21152 ft 386 kts 333°
2026-05-07 23:22 -38.66509 145.71915 20761 ft 384 kts 333°
2026-05-07 23:22 -38.64026 145.70686 20384 ft 382 kts 333°
2026-05-07 23:22 -38.61556 145.69464 19992 ft 380 kts 333°
2026-05-07 23:23 -38.59094 145.68247 19597 ft 379 kts 333°
2026-05-07 23:23 -38.56638 145.67034 19221 ft 378 kts 333°
2026-05-07 23:23 -38.54191 145.65826 18837 ft 376 kts 333°
2026-05-07 23:23 -38.51749 145.64622 18451 ft 376 kts 333°
2026-05-07 23:24 -38.49313 145.63422 17999 ft 375 kts 333°
2026-05-07 23:24 -38.46897 145.62201 17583 ft 372 kts 329°
2026-05-07 23:24 -38.44607 145.60729 17187 ft 366 kts 325°
2026-05-07 23:24 -38.42385 145.59183 16801 ft 363 kts 324°
2026-05-07 23:25 -38.40181 145.57632 16426 ft 360 kts 324°
2026-05-07 23:25 -38.37993 145.56096 16047 ft 359 kts 324°
2026-05-07 23:25 -38.35806 145.54573 15666 ft 357 kts 324°
2026-05-07 23:25 -38.33633 145.53066 15295 ft 355 kts 324°
2026-05-07 23:26 -38.31462 145.51565 14911 ft 354 kts 325°
2026-05-07 23:26 -38.29304 145.50078 14551 ft 353 kts 325°
2026-05-07 23:26 -38.27143 145.48593 14180 ft 351 kts 325°
2026-05-07 23:26 -38.25020 145.47135 13805 ft 350 kts 325°
2026-05-07 23:27 -38.20745 145.44204 13015 ft 347 kts 325°
2026-05-07 23:27 -38.18624 145.42752 12643 ft 346 kts 325°
2026-05-07 23:27 -38.16514 145.41308 12277 ft 344 kts 325°
2026-05-07 23:28 -38.14403 145.39863 11752 ft 342 kts 325°
2026-05-07 23:28 -38.12351 145.38465 11336 ft 331 kts 325°
2026-05-07 23:28 -38.10321 145.37077 10974 ft 330 kts 325°
2026-05-07 23:28 -38.08297 145.35692 10624 ft 330 kts 325°
2026-05-07 23:29 -38.06281 145.34315 10322 ft 327 kts 325°
2026-05-07 23:29 -38.04303 145.32969 10180 ft 318 kts 325°
2026-05-07 23:29 -38.02373 145.31658 10024 ft 310 kts 325°
2026-05-07 23:29 -38.01120 145.30802 9834 ft 308 kts 324°
2026-05-07 23:30 -37.99243 145.29491 9471 ft 307 kts 324°
2026-05-07 23:30 -37.97387 145.28188 9101 ft 298 kts 324°
2026-05-07 23:30 -37.95600 145.26937 8792 ft 291 kts 324°
2026-05-07 23:30 -37.93835 145.25698 8468 ft 290 kts 325°
2026-05-07 23:31 -37.92057 145.24472 8131 ft 289 kts 324°
2026-05-07 23:31 -37.89735 145.22828 7699 ft 289 kts 325°
2026-05-07 23:31 -37.88549 145.21994 7474 ft 289 kts 325°
2026-05-07 23:31 -37.86813 145.20781 7140 ft 288 kts 325°
2026-05-07 23:32 -37.85071 145.19568 6836 ft 281 kts 325°
2026-05-07 23:32 -37.83399 145.18428 6477 ft 265 kts 326°
2026-05-07 23:32 -37.81788 145.17357 6177 ft 261 kts 326°
2026-05-07 23:32 -37.80185 145.16291 5862 ft 260 kts 326°
2026-05-07 23:33 -37.78587 145.15225 5577 ft 260 kts 326°
2026-05-07 23:33 -37.76978 145.14153 5276 ft 260 kts 325°
2026-05-07 23:33 -37.75378 145.13092 4997 ft 260 kts 325°
2026-05-07 23:33 -37.73772 145.12020 4683 ft 261 kts 324°
2026-05-07 23:34 -37.72267 145.10845 4364 ft 245 kts 308°
2026-05-07 23:34 -37.71264 145.09266 4158 ft 228 kts 298°
2026-05-07 23:34 -37.70306 145.07685 3924 ft 225 kts 299°
2026-05-07 23:34 -37.69339 145.06139 3654 ft 223 kts 299°
2026-05-07 23:35 -37.68369 145.04595 3398 ft 221 kts 299°
2026-05-07 23:35 -37.67540 145.03044 3088 ft 205 kts 281°
2026-05-07 23:35 -37.67274 145.01399 2948 ft 184 kts 270°
2026-05-07 23:35 -37.67109 144.99801 2653 ft 181 kts 266°
2026-05-07 23:36 -37.67004 144.98271 2567 ft 172 kts 265°
2026-05-07 23:36 -37.66917 144.96757 2368 ft 170 kts 267°
2026-05-07 23:36 -37.66832 144.95311 2104 ft 161 kts 268°
2026-05-07 23:36 -37.66753 144.93955 1898 ft 150 kts 268°
2026-05-07 23:37 -37.66688 144.92694 1686 ft 136 kts 268°
2026-05-07 23:37 -37.66620 144.91571 1536 ft 126 kts 269°
2026-05-07 23:37 -37.66553 144.90462 1346 ft 127 kts 268°
2026-05-07 23:37 -37.66490 144.89357 1180 ft 128 kts 269°
2026-05-07 23:38 -37.66424 144.88232 997 ft 127 kts 269°
2026-05-07 23:38 -37.66360 144.87127 813 ft 126 kts 269°
2026-05-07 23:38 -37.66293 144.86033 648 ft 124 kts 269°
2026-05-07 23:38 -37.66234 144.84947 472 ft 121 kts 270°
2026-05-07 23:39 -37.66187 144.84001 410 ft 93 kts 276°
2026-05-07 23:39 -37.66145 144.83387 415 ft 50 kts 274°
2026-05-07 23:39 -37.66137 144.83101 411 ft 26 kts 264°
2026-05-07 23:39 -37.66187 144.82890 406 ft 17 kts 245°
2026-05-07 23:40 -37.66217 144.82809 403 ft 11 kts 243°
2026-05-07 23:40 -37.66265 144.82720 398 ft 13 kts 224°
2026-05-07 23:40 -37.66333 144.82683 396 ft 10 kts 184°
2026-05-07 23:40 -37.66412 144.82719 392 ft 14 kts 141°
2026-05-07 23:41 -37.66447 144.82836 390 ft 15 kts 97°
2026-05-07 23:41 -37.66455 144.82970 393 ft 15 kts 94°
2026-05-07 23:41 -37.66459 144.83028 396 ft 0 kts 95°
2026-05-07 23:42 -37.66462 144.83068 417 ft 12 kts 96°
2026-05-07 23:42 -37.66471 144.83215 403 ft 18 kts 94°
2026-05-07 23:42 -37.66480 144.83377 407 ft 18 kts 94°
2026-05-07 23:43 -37.66489 144.83526 409 ft 8 kts 94°
2026-05-07 23:43 -37.66494 144.83607 409 ft 14 kts 95°
2026-05-07 23:43 -37.66505 144.83781 409 ft 11 kts 93°
2026-05-07 23:43 -37.66508 144.83853 409 ft 6 kts 93°
2026-05-07 23:44 -37.66510 144.83889 409 ft 0 kts 94°
2026-05-07 23:44 -37.66522 144.83917 408 ft 9 kts 133°
2026-05-07 23:44 -37.66600 144.83946 404 ft 14 kts 169°
2026-05-07 23:44 -37.66696 144.83982 399 ft 13 kts 140°
2026-05-07 23:45 -37.66722 144.84088 396 ft 14 kts 107°
2026-05-07 23:45 -37.66772 144.84173 397 ft 12 kts 145°
2026-05-07 23:45 -37.66863 144.84206 392 ft 15 kts 171°
2026-05-07 23:45 -37.66971 144.84226 391 ft 15 kts 172°
2026-05-07 23:46 -37.67046 144.84269 390 ft 10 kts 124°
2026-05-07 23:46 -37.67051 144.84355 391 ft 10 kts 85°
2026-05-07 23:46 -37.67034 144.84438 393 ft 10 kts 66°
2026-05-07 23:46 -37.67016 144.84521 391 ft 10 kts 83°
2026-05-07 23:47 -37.67007 144.84607 393 ft 10 kts 79°
2026-05-07 23:47 -37.66996 144.84640 393 ft 2 kts 56°
2026-05-07 23:47 -37.66987 144.84652 394 ft 2 kts 47°
2026-05-07 23:47 -37.66971 144.84668 393 ft 4 kts 29°
2026-05-07 23:48 -37.66947 144.84674 397 ft 4 kts
2026-05-07 23:48 -37.66927 144.84676 395 ft 2 kts
2026-05-07 23:48 -37.66924 144.84676 396 ft 0 kts
2026-05-07 23:51 -37.66911 144.84678 396 ft 0 kts
2026-05-07 23:51 -37.66753 144.84543 401 ft 0 kts 172°